Globalstar M073

operational
NORAD ID: 37193 Int'l Des: 2010-054 Owner: GLOB Country: US Constellation: globalstar
LEOCIRCULAR

About Globalstar M073

Description loading...

Live Position

Loading 3D Globe...

Upcoming Passes

Altitude History

Altitude vs Time

uPlot chart will show altitude changes over time

Two-Line Element Set

1 37193U 10054F 25299.53464022 -.00000107 00000-0 -17710-4 0 9996
2 37193 52.0072 55.5309 0000611 127.1519 313.8585 12.62263627694427
Epoch: Oct 26, 2025 • Age: 6 hours

Current Status

Altitude 1419.6 km
Velocity 7.16 km/s
Sub-Earth Point 52.08°N, 172.89°W
Launch Date Oct 19, 2010
Age 15 years
Type communications

Technical Details

Classification Payload
Mass 715.00 kg
Dry Mass 500.00 kg
Total Mass 715.00 kg
Length 4.00 m
Diameter 2.00 m
Span 12.00 m
Shape Trap Cyl + 2 Pan
Manufacturer THALR
Bus Type Prisma
Phase Status In Orbit
Owner/State GLOB/US

Large Constellations

Loading constellations...